TimeMST,TemperatureF,Dew PointF,Humidity,Sea Level PressureIn,VisibilityMPH,Wind Direction,Wind SpeedMPH,Gust SpeedMPH,PrecipitationIn,Events,Conditions,WindDirDegrees,DateUTC
12:53 AM,28.9,17.1,61,30.08,10.0,WSW,8.1,-,N/A,,Clear,250,2013-01-26 07:53:00
1:53 AM,24.1,12.9,62,30.07,10.0,NW,9.2,-,N/A,,Clear,320,2013-01-26 08:53:00
2:53 AM,24.1,12.9,62,30.04,10.0,West,5.8,-,N/A,,Clear,260,2013-01-26 09:53:00
3:53 AM,25.0,15.1,66,30.02,10.0,Calm,Calm,-,N/A,,Clear,0,2013-01-26 10:53:00
4:53 AM,23.0,12.0,63,30.02,10.0,North,8.1,-,N/A,,Clear,350,2013-01-26 11:53:00
5:53 AM,26.1,15.1,63,30.04,10.0,WSW,3.5,-,N/A,,Clear,250,2013-01-26 12:53:00
6:53 AM,27.0,16.0,63,30.05,10.0,Calm,Calm,-,N/A,,Clear,0,2013-01-26 13:53:00
7:53 AM,30.9,19.0,61,30.04,10.0,Calm,Calm,-,N/A,,Clear,0,2013-01-26 14:53:00
8:53 AM,39.9,21.9,49,30.01,10.0,South,5.8,-,N/A,,Clear,190,2013-01-26 15:53:00
9:53 AM,44.1,23.0,43,30.00,10.0,Calm,Calm,-,N/A,,Clear,0,2013-01-26 16:53:00
10:53 AM,48.9,24.1,38,29.98,10.0,Calm,Calm,-,N/A,,Partly Cloudy,0,2013-01-26 17:53:00
11:53 AM,52.0,24.1,34,29.93,10.0,Calm,Calm,-,N/A,,Mostly Cloudy,0,2013-01-26 18:53:00
12:53 PM,53.1,24.1,32,29.88,10.0,SE,5.8,-,N/A,,Mostly Cloudy,130,2013-01-26 19:53:00
1:53 PM,55.9,24.1,29,29.85,10.0,East,8.1,-,N/A,,Mostly Cloudy,100,2013-01-26 20:53:00
2:53 PM,57.0,26.1,30,29.83,10.0,ESE,9.2,-,N/A,,Scattered Clouds,120,2013-01-26 21:53:00
3:53 PM,54.0,26.1,34,29.81,10.0,ESE,11.5,-,N/A,,Mostly Cloudy,110,2013-01-26 22:53:00
4:53 PM,51.1,24.1,35,29.83,10.0,East,8.1,-,N/A,,Overcast,90,2013-01-26 23:53:00
5:53 PM,48.0,30.9,52,29.82,10.0,ENE,5.8,-,0.00,Rain,Light Rain,70,2013-01-27 00:53:00
6:53 PM,45.0,33.1,63,29.81,10.0,NE,8.1,-,0.00,,Mostly Cloudy,50,2013-01-27 01:53:00
7:53 PM,39.9,30.0,68,29.81,10.0,NNW,8.1,-,N/A,,Mostly Cloudy,340,2013-01-27 02:53:00
8:53 PM,41.0,28.9,62,29.76,10.0,North,9.2,-,N/A,,Scattered Clouds,350,2013-01-27 03:53:00
9:53 PM,37.9,27.0,65,29.75,10.0,Calm,Calm,-,N/A,,Mostly Cloudy,0,2013-01-27 04:53:00
10:53 PM,37.9,27.0,65,29.69,10.0,Calm,Calm,-,N/A,,Clear,0,2013-01-27 05:53:00
11:53 PM,33.1,27.0,78,29.70,10.0,SW,4.6,-,N/A,,Clear,230,2013-01-27 06:53:00